Location: Tesero
(46.2833°N, 11.5167°E)
Time: 00:55:25
(UTC+00:00)

Daily predictions for brighter satellites

Satellite Brightness Start Highest point End
(mag) Time Altitude Azimuth Time Altitude Azimuth Time Altitude Azimuth
ADEOS II 4.5 00:35:33 10° NE 00:37:23 18° ENE 00:37:23 18° ENE
USA 234 4.4 00:36:54 10° ENE 00:42:45 36° N 00:43:28 35° N
Cosmos 1697 Rocket 4.4 00:59:12 28° NE 00:59:12 28° NE 01:01:48 10° NNE
Cosmos 1980 Rocket 3.8 01:05:32 30° NE 01:05:32 30° NE 01:08:35 10° NE
Cosmos 2263 Rocket 3.9 01:00:01 10° NNW 01:03:49 30° NNE 01:03:49 30° NNE
Lacrosse 5 3.8 01:22:28 26° NE 01:22:28 26° NE 01:24:47 10° NE
SL-16 R/B 4.1 01:24:45 21° ESE 01:25:02 21° E 01:29:09 10° NE
Resurs 1-4 Rocket 3.8 01:24:39 10° N 01:26:57 26° N 01:26:57 26° N
SL-16 R/B 4.4 01:35:43 19° NNW 01:35:43 19° NNW 01:37:24 10° NNW
CZ-2D R/B 3.8 01:31:15 10° N 01:33:36 26° N 01:33:36 26° N
USA 267 3.8 01:43:12 10° ENE 01:49:29 46° SE 01:49:37 46° SE
ARIANE 5 R/B 3.5 01:45:55 10° NNE 01:50:05 43° ENE 01:50:05 43° ENE
NOSS 3-3 (A) 4.2 01:51:32 64° E 01:51:32 64° E 01:57:31 10° NE
NOSS 3-3 (C) 4.2 01:51:39 64° E 01:51:39 64° E 01:57:36 10° NE
ATLAS 5 CENTAUR R/B 4.2 01:57:35 13° NNW 01:57:52 13° NNW 02:00:12 10° NNE
Cosmos 1934 Rocket 4.0 01:53:29 10° N 01:58:46 69° N 01:58:46 69° N
IRS-1D 4.5 01:58:32 10° N 02:02:07 41° N 02:02:07 41° N
IRS-P3 4.4 01:59:05 10° NNE 02:03:31 62° NNE 02:03:31 62° NNE
Gbstr 26 Del rocket 4.3 02:03:39 70° W 02:04:37 80° SSW 02:12:11 10° SE
ATLAS 2AS CENTAUR R/B 3.8 01:58:05 10° NW 02:05:21 45° NE 02:12:03 10° ESE
Cosmos 44 4.5 02:08:32 35° NNE 02:08:32 35° NNE 02:11:28 10° NNE
Cosmos 2278 4.3 02:10:19 48° NNW 02:10:19 48° NNW 02:14:54 10° NNE
Cosmos 990 Rocket 4.5 02:04:23 10° NNW 02:09:32 58° ENE 02:14:40 10° SE
ADEOS II 2.9 02:14:37 10° N 02:18:20 40° NNW 02:18:20 40° NNW
Cosmos 468 Rocket 4.4 02:19:42 55° SE 02:20:13 57° ESE 02:25:24 10° NNE
SL-4 R/B 3.1 02:21:54 47° E 02:21:54 47° E 02:25:37 10° ENE
IDEFIX/ARIANE 42P 2.7 02:16:35 10° NNE 02:21:52 69° ESE 02:22:24 64° SE
ERS-1 4.5 02:18:35 10° NNE 02:23:31 81° N 02:23:31 81° N
CZ-2C R/B 4.1 02:20:13 10° NNE 02:23:31 36° E 02:23:31 36° E
CZ-4C R/B 4.5 02:18:58 10° NNW 02:24:54 30° NNE 02:31:41 10° E
USA 234 3.6 02:18:41 10° ESE 02:25:06 61° NNE 02:30:48 14° NW
Cosmos 2228 Rocket 3.8 02:33:13 45° N 02:33:13 45° N 02:36:24 10° N
Cosmos 1238 Rocket 4.0 02:27:33 10° NNW 02:33:16 54° WNW 02:33:16 54° WNW
Cosmos 1605 Rocket 3.9 02:27:45 10° N 02:34:12 81° W 02:37:19 33° S
USA 305 4.3 02:36:27 30° N 02:36:30 30° N 02:40:18 10° NE
Cosmos 2360 Rocket 3.6 02:33:12 16° SSE 02:37:03 34° ESE 02:42:07 10° NE
H-2A R/B 3.0 02:33:07 10° SE 02:37:23 50° ENE 02:41:45 10° N
Cosmos 1697 Rocket 4.2 02:40:57 22° NW 02:40:57 22° NW 02:45:06 10° N
USA 306 4.3 02:40:43 30° NNW 02:40:57 30° N 02:44:45 10° NE
CZ-2C R/B 3.9 02:40:18 10° NNE 02:45:07 38° E 02:49:55 10° SSE
ATLAS CENTAUR R/B 4.3 02:33:39 10° WNW 02:45:15 43° N 02:49:54 10° E
Meteor 1-4 Rocket 3.6 02:46:55 38° NNE 02:46:55 38° NNE 02:49:14 10° N
Cosmos 1980 Rocket 3.1 02:47:20 33° NW 02:47:22 33° NW 02:52:27 10° NNE
Cosmos 2263 Rocket 3.9 02:43:48 10° NW 02:45:20 18° NW 02:45:20 18° NW
ASTEX 1 3.7 02:46:58 10° N 02:51:25 49° WNW 02:51:25 49° WNW
Cosmos 1844 Rocket 3.6 02:47:58 10° NNW 02:53:27 48° ENE 02:58:54 10° SE
Helios 1B 4.4 02:54:47 46° S 02:56:02 82° WSW 03:00:24 10° NNW
Cosmos 2322 Rocket 2.1 02:54:21 40° SSW 02:56:29 86° ESE 03:02:14 10° NNE
Cosmos 1898 Rocket 3.4 02:52:24 10° NNW 02:57:37 64° WSW 03:02:50 10° S
Cosmos 1666 2.8 02:55:55 10° N 02:59:07 60° NNW 02:59:07 60° NNW
Spot 4 Rocket 4.0 02:54:44 10° N 02:59:50 64° WNW 03:01:00 49° SW
Meteor 1-11 Rocket 3.6 02:56:03 10° NNW 03:01:50 81° W 03:07:26 10° S
Lacrosse 5 3.4 03:01:39 21° NW 03:03:36 26° N 03:07:53 10° NE
Cosmos 921 Rocket 4.1 03:05:07 28° NW 03:05:07 28° NW 03:08:02 10° N
Cosmos 858 Rocket 4.3 02:59:05 10° NNW 03:04:17 77° WSW 03:09:28 10° SSE
Cosmos 1812 3.8 03:08:15 32° NW 03:08:15 32° NW 03:10:48 10° N
SL-16 R/B 2.2 03:06:39 41° SW 03:08:35 65° WNW 03:14:15 10° NNE
Meteor 1-27 Rocket 3.8 03:05:04 16° S 03:09:54 90° SSW 03:15:49 10° N
USA 307 4.4 03:08:53 22° NW 03:10:31 28° N 03:14:15 10° ENE
IRIDIUM 104 4.3 03:07:06 10° N 03:12:14 58° W 03:15:23 23° SSW
ERBS 3.8 03:12:22 25° NNW 03:12:22 25° NNW 03:15:10 10° NNE
USA 308 4.4 03:12:07 21° NW 03:13:55 28° N 03:17:40 10° ENE
Cosmos 1727 Rocket 3.9 03:09:26 20° SSW 03:14:00 70° W 03:20:20 10° N
Cosmos 2100 Rocket 4.1 03:07:50 10° N 03:14:16 85° E 03:20:37 10° S
Cosmos 1437 Rocket 4.4 03:12:40 10° SSE 03:16:08 34° E 03:19:38 10° NNE
Cosmos 1937 Rocket 3.4 03:12:03 10° NNW 03:17:07 59° WSW 03:22:08 10° S
Cosmos 2237 4.3 03:13:42 19° SSW 03:17:52 77° ESE 03:23:36 10° NNE
Cosmos 1459 Rocket 3.9 03:12:18 10° N 03:18:25 83° E 03:24:28 10° S
CZ-4C R/B 3.6 03:20:02 40° NW 03:20:02 40° NW 03:22:38 10° NNW
FALCON 9 DEB 3.4 03:20:10 49° NW 03:20:33 52° NNW 03:23:55 10° NE
Cosmos 841 Rocket 3.5 03:18:31 20° SSW 03:22:11 89° ESE 03:27:29 10° NNE
Cosmos 1802 Rocket 4.2 03:18:14 10° N 03:24:29 77° E 03:30:46 10° SSE
Cosmos 1536 2.8 03:20:43 10° NNW 03:24:45 60° W 03:28:45 10° S
Cosmos 2219 Rocket 4.0 03:20:10 10° SSE 03:25:04 31° ESE 03:29:59 10° NE
Cosmos 2208 Rocket 4.1 03:22:04 13° SSW 03:26:43 79° ESE 03:31:55 10° NNE
Cosmos 1763 Rocket 3.9 03:25:16 31° WSW 03:27:17 46° WNW 03:32:24 10° NNE
Cosmos 1814 Rocket 4.1 03:23:39 13° SSW 03:28:20 81° ESE 03:33:40 10° NNE
ARIANE 5 R/B 3.5 03:25:32 10° N 03:29:39 25° WNW 03:30:25 24° WNW
USA 32 4.1 03:24:42 10° NNW 03:29:51 56° W 03:34:58 10° SSW
USA 267 3.4 03:26:11 10° NE 03:32:40 65° NNW 03:36:57 23° WSW
NOSS 3-4 (A) 3.8 03:25:53 10° NW 03:32:51 64° WSW 03:40:31 10° SSE
NOSS 3-4 (C) 3.8 03:25:59 10° NW 03:32:57 64° WSW 03:40:38 10° SSE
Cosmos 1707 Rocket 3.8 03:32:27 30° SW 03:34:08 44° WNW 03:38:20 10° N
ADEOS Rocket 3.0 03:30:45 10° SSE 03:37:23 82° WSW 03:43:22 10° NNW
Cosmos 2150 Rocket 4.4 03:32:58 10° NNW 03:38:26 68° ENE 03:43:47 10° SSE
CZ-4B R/B 1.5 03:37:03 10° SSE 03:40:14 71° ENE 03:43:31 10° N
ERS-2 2.1 03:37:53 10° S 03:41:30 57° WSW 03:45:07 10° NNW
Cosmos 540 Rocket 3.5 03:38:54 17° SW 03:42:51 62° WNW 03:48:01 10° NNE
MSX 4.4 03:39:24 10° N 03:44:43 38° WNW 03:48:33 17° SW
ATLAS 5 CENTAUR R/B 4.4 03:42:28 10° NNW 03:44:48 13° NNE 03:47:17 10° NE
COSMOS 2428 4.1 03:42:19 10° S 03:47:37 40° ESE 03:52:56 10° NE
Cosmos 44 Rocket 3.4 03:44:48 22° WSW 03:47:48 58° NW 03:52:38 10° NNE
Cosmos 1733 Rocket 3.2 03:43:46 10° NNW 03:47:56 47° W 03:52:05 10° SSW
Cosmos 1544 3.3 03:45:45 10° N 03:49:20 70° E 03:52:54 10° SSE
Cosmos 1743 2.5 03:46:51 10° NNW 03:50:40 75° W 03:54:27 10° S
PAYLOAD A 4.0 03:47:55 10° N 03:52:26 48° WNW 03:56:57 10° SW
Cosmos 2173 Rocket 4.2 03:50:01 10° NNW 03:56:08 52° W 04:02:16 10° SSW
ADEOS 3.6 03:50:57 10° NNE 03:56:13 85° ESE 04:01:26 10° SSW
ATLAS 2AS CENTAUR R/B 2.9 03:49:19 10° NW 03:56:31 54° WSW 04:03:07 10° SSE
Cosmos 2333 Rocket 2.9 03:50:53 10° S 03:56:33 59° ESE 04:02:12 10° NNE
CZ-2C R/B 4.2 03:55:13 10° NNW 03:57:59 19° WNW 03:58:54 18° W
BREEZE M DEB (TANK) 4.5 03:48:14 10° WNW 03:58:14 29° WSW 04:02:10 10° S
Cosmos 2242 Rocket 3.7 03:55:02 10° S 03:59:25 79° E 04:03:52 10° NNE
SL-4 R/B 2.8 03:57:30 18° W 04:00:50 53° NNW 04:05:34 10° ENE
IDEFIX/ARIANE 42P 4.0 03:57:15 10° NNW 04:00:55 19° WNW 04:03:12 15° W
Cosmos 2322 3.8 03:55:43 10° SSW 04:01:22 81° ESE 04:07:03 10° NNE
PSLV R/B 4.0 03:57:50 10° N 04:01:43 37° WNW 04:05:35 10° SW
Cosmos 1570 Rocket 4.4 03:58:30 12° SW 04:03:14 45° WNW 04:08:23 10° N
BREEZE-M DEB (TANK) 2.5 03:59:36 15° WSW 04:04:51 74° SSE 04:07:33 10° E
Meteor 2-20 Rocket 4.4 03:58:51 10° S 04:05:00 83° W 04:11:10 10° N
USA 276 2.3 04:03:18 17° WNW 04:05:32 54° SSW 04:08:41 10° SE
Meteor 2-20 4.5 04:00:45 10° SSW 04:06:47 61° WNW 04:12:51 10° N
USA 234 3.5 04:01:53 10° SSE 04:08:12 51° SW 04:14:34 10° WNW
Cosmos 1862 Rocket 4.0 04:04:55 10° SW 04:09:01 39° WNW 04:13:07 10° N
BREEZE-M DEB (TANK) 3.9 04:08:00 14° W 04:10:55 63° N 04:21:13 10° E
H-2A R/B 3.5 04:10:32 10° SW 04:13:38 18° W 04:16:47 10° NW
CZ-4C R/B 3.1 04:07:13 10° NW 04:14:26 84° NE 04:22:47 10° SE
SAR-Lupe-4 3.7 04:11:00 10° S 04:14:29 52° WSW 04:18:01 10° NNW
ALOS 2.2 04:11:00 10° N 04:15:42 79° WNW 04:20:20 10° SSW
Cosmos 1689 Rocket 2.1 04:13:28 10° SSE 04:16:26 86° E 04:19:26 10° NNW
PSLV R/B 4.2 04:12:39 10° SSE 04:16:42 74° ENE 04:20:49 10° N
USA 305 4.3 04:13:29 10° NW 04:17:21 33° NNE 04:21:14 10° ENE
FENGYUN 3A 3.6 04:12:36 10° NNE 04:18:02 79° WNW 04:23:26 10° SSW
Cosmos 2333 4.2 04:13:49 10° SSW 04:19:36 75° WNW 04:25:24 10° NNE
Cosmos 2360 Rocket 2.7 04:15:37 10° SW 04:20:58 42° NW 04:26:20 10° NNE
USA 306 4.3 04:17:55 10° NW 04:21:49 34° NNE 04:25:43 10° E
COSMOS 2455 3.7 04:16:23 10° NNW 04:22:20 54° NE 04:28:14 10° SE
CZ-2C R/B 3.3 04:18:41 10° N 04:23:14 32° WNW 04:27:48 10° SW
Cosmos 1975 2.7 04:20:09 10° NNW 04:24:09 71° W 04:28:07 10° S
Meteor 1-19 Rocket 4.2 04:21:42 10° SSW 04:27:12 75° WNW 04:32:54 10° N
Cosmos 2016 Rocket 4.3 04:22:09 10° NNW 04:27:52 43° W 04:33:33 10° SSW
Meteor 1-18 Rocket 4.2 04:22:26 10° SSW 04:27:57 69° WNW 04:33:33 10° N
Sich 1 Rocket 4.3 04:27:13 10° N 04:31:48 64° E 04:36:19 10° SSE
Cosmos 1484 Rocket 3.2 04:29:06 10° N 04:32:55 44° WNW 04:36:44 10° SW
Cosmos 2061 Rocket 4.5 04:28:44 10° NNW 04:34:41 41° W 04:40:35 10° SSW
Cosmos 1844 Rocket 3.5 04:32:18 10° NW 04:37:05 29° WSW 04:41:52 10° SSW
Cosmos 1515 4.1 04:33:51 10° SSW 04:37:26 39° WNW 04:41:01 10° N
Cosmos 2233 Rocket 4.0 04:31:37 10° NNW 04:37:42 68° W 04:43:47 10° S
Okean 2 Rocket 4.2 04:36:50 10° N 04:41:08 50° ENE 04:45:24 10° SSE
Cosmos 2322 Rocket 3.7 04:37:10 10° W 04:41:19 20° NW 04:45:29 10° N
Cosmos 2278 Rocket 2.7 04:36:43 10° NNW 04:42:24 69° ENE 04:48:02 10° SE
